Starlink 33564

operational
NORAD ID: 62286 Int'l Des: 2024-237 Owner: SPXS Country: US Constellation: starlink
LEOCIRCULAR

Starlink 33564について

説明を読み込み中...

リアルタイム位置

3D地球を読み込み中...

次回通過

高度履歴

Altitude vs Time

uPlot chart will show altitude changes over time

軌道要素

1 62286U 24237V 25352.23940618 .00019422 00000-0 71338-3 0 9995
2 62286 43.0027 316.4813 0001438 278.3046 81.7643 15.27582859 58738
Epoch: Dec 18, 2025 • Age: 8 hours

現在のステータス

高度 488.7 km
速度 7.62 km/s
衛星直下点 -25.71°S, 4.94°W
打ち上げ日 Dec 8, 2024
運用期間 1 years
タイプ internet

技術仕様

分類 Payload
質量 530.00 kg
乾燥質量 500.00 kg
総質量 530.00 kg
長さ 0.30 m
直径 4.10 m
スパン 29.00 m
形状 Box + pan
製造者 SPXS
バスタイプ Starlink V2MO
フェーズステータス In Orbit
所有者/国 SPXS/US

大規模コンステレーション

Loading constellations...